TimeAKST,TemperatureF,Dew PointF,Humidity,Sea Level PressureIn,VisibilityMPH,Wind Direction,Wind SpeedMPH,Gust SpeedMPH,PrecipitationIn,Events,Conditions,WindDirDegrees,DateUTC
12:16 AM,-29.2,-9999,N/A,29.59,10.0,Calm,Calm,-,N/A,,Unknown,0,2013-02-23 09:16:00
12:36 AM,-29.2,-9999,N/A,29.58,10.0,Calm,Calm,-,N/A,,Unknown,0,2013-02-23 09:36:00
12:56 AM,-29.2,-9999,N/A,29.58,10.0,Calm,Calm,-,N/A,,Unknown,0,2013-02-23 09:56:00
1:16 AM,-29.2,-9999,N/A,29.57,10.0,Calm,Calm,-,N/A,,Unknown,0,2013-02-23 10:16:00
1:36 AM,-27.4,-9999,N/A,29.57,10.0,Calm,Calm,-,N/A,,Unknown,0,2013-02-23 10:36:00
1:56 AM,-27.4,-9999,N/A,29.57,10.0,Calm,Calm,-,N/A,,Unknown,0,2013-02-23 10:56:00
2:16 AM,-29.2,-9999,N/A,29.56,10.0,Calm,Calm,-,N/A,,Unknown,0,2013-02-23 11:16:00
2:36 AM,-29.2,-9999,N/A,29.56,10.0,Calm,Calm,-,N/A,,Unknown,0,2013-02-23 11:36:00
2:56 AM,-32.8,-9999,N/A,29.55,10.0,Calm,Calm,-,N/A,,Unknown,0,2013-02-23 11:56:00
3:16 AM,-32.8,-9999,N/A,29.55,10.0,Calm,Calm,-,N/A,,Unknown,0,2013-02-23 12:16:00
3:36 AM,-32.8,-9999,N/A,29.55,10.0,Calm,Calm,-,N/A,,Unknown,0,2013-02-23 12:36:00
3:56 AM,-32.8,-9999,N/A,29.55,10.0,Calm,Calm,-,N/A,,Unknown,0,2013-02-23 12:56:00
4:16 AM,-32.8,-9999,N/A,29.54,10.0,Calm,Calm,-,N/A,,Unknown,0,2013-02-23 13:16:00
4:36 AM,-31.0,-9999,N/A,29.54,10.0,Calm,Calm,-,N/A,,Unknown,0,2013-02-23 13:36:00
4:56 AM,-29.2,-9999,N/A,29.54,10.0,Calm,Calm,-,N/A,,Unknown,0,2013-02-23 13:56:00
5:16 AM,-29.2,-9999,N/A,29.54,10.0,Calm,Calm,-,N/A,,Unknown,0,2013-02-23 14:16:00
5:36 AM,-9999,-9999,N/A,29.53,10.0,Calm,Calm,-,N/A,,Unknown,0,2013-02-23 14:36:00
5:56 AM,-27.4,-9999,N/A,29.52,10.0,Calm,Calm,-,N/A,,Unknown,0,2013-02-23 14:56:00
6:16 AM,-27.4,-9999,N/A,29.52,10.0,Calm,Calm,-,N/A,,Unknown,0,2013-02-23 15:16:00
6:36 AM,-25.6,-9999,N/A,29.51,10.0,Calm,Calm,-,N/A,,Unknown,0,2013-02-23 15:36:00
6:56 AM,-25.6,-9999,N/A,29.50,10.0,Calm,Calm,-,N/A,,Unknown,0,2013-02-23 15:56:00
7:16 AM,-27.4,-9999,N/A,29.50,10.0,Calm,Calm,-,N/A,,Unknown,0,2013-02-23 16:16:00
7:36 AM,-27.4,-9999,N/A,29.51,10.0,Calm,Calm,-,N/A,,Unknown,0,2013-02-23 16:36:00
7:56 AM,-27.4,-9999,N/A,29.51,10.0,Calm,Calm,-,N/A,,Unknown,0,2013-02-23 16:56:00
8:16 AM,-31.0,-9999,N/A,29.50,10.0,Calm,Calm,-,N/A,,Unknown,0,2013-02-23 17:16:00
8:36 AM,-29.2,-9999,N/A,29.50,10.0,Calm,Calm,-,N/A,,Unknown,0,2013-02-23 17:36:00
8:56 AM,-27.4,-9999,N/A,29.50,10.0,Calm,Calm,-,N/A,,Unknown,0,2013-02-23 17:56:00
9:16 AM,-29.2,-9999,N/A,29.49,10.0,Calm,Calm,-,N/A,,Unknown,0,2013-02-23 18:16:00
9:36 AM,-27.4,-9999,N/A,29.49,10.0,Calm,Calm,-,N/A,,Unknown,0,2013-02-23 18:36:00
9:56 AM,-31.0,-9999,N/A,29.49,10.0,Calm,Calm,-,N/A,,Unknown,0,2013-02-23 18:56:00
10:16 AM,-34.6,-9999,N/A,29.49,10.0,Calm,Calm,-,N/A,,Unknown,0,2013-02-23 19:16:00
10:36 AM,-34.6,-9999,N/A,29.49,10.0,Calm,Calm,-,N/A,,Unknown,0,2013-02-23 19:36:00
10:56 AM,-32.8,-9999,N/A,29.49,5.0,Calm,Calm,-,N/A,,Unknown,0,2013-02-23 19:56:00
11:16 AM,-34.6,-9999,N/A,29.49,10.0,Calm,Calm,-,N/A,,Unknown,0,2013-02-23 20:16:00
11:36 AM,-32.8,-9999,N/A,29.49,10.0,Calm,Calm,-,N/A,,Unknown,0,2013-02-23 20:36:00
11:56 AM,-32.8,-9999,N/A,29.48,10.0,Calm,Calm,-,N/A,,Unknown,0,2013-02-23 20:56:00
12:16 PM,-29.2,-9999,N/A,29.48,1.8,Calm,Calm,-,N/A,,Unknown,0,2013-02-23 21:16:00
12:36 PM,-29.2,-9999,N/A,29.48,10.0,Calm,Calm,-,N/A,,Unknown,0,2013-02-23 21:36:00
12:56 PM,-27.4,-9999,N/A,29.48,10.0,Calm,Calm,-,N/A,,Unknown,0,2013-02-23 21:56:00
1:16 PM,-27.4,-9999,N/A,29.48,10.0,Calm,Calm,-,N/A,,Unknown,0,2013-02-23 22:16:00
1:36 PM,-25.6,-29.2,83,29.47,8.0,Calm,Calm,-,N/A,,Unknown,0,2013-02-23 22:36:00
1:56 PM,-23.8,-9999,N/A,29.47,7.0,Calm,Calm,-,N/A,,Unknown,0,2013-02-23 22:56:00
2:16 PM,-9999,-9999,N/A,29.46,-9999.0,Calm,Calm,-,N/A,,Unknown,0,2013-02-23 23:16:00
2:36 PM,-23.8,-9999,N/A,29.46,9.0,Calm,Calm,-,N/A,,Unknown,0,2013-02-23 23:36:00
2:56 PM,-22.0,-9999,N/A,29.46,10.0,Calm,Calm,-,N/A,,Unknown,0,2013-02-23 23:56:00
3:16 PM,-20.2,-27.4,69,29.45,9.0,Calm,Calm,-,N/A,,Unknown,0,2013-02-24 00:16:00
3:36 PM,-20.2,-27.4,69,29.44,9.0,Calm,Calm,-,N/A,,Unknown,0,2013-02-24 00:36:00
3:56 PM,-18.4,-9999,N/A,29.44,10.0,Calm,Calm,-,N/A,,Unknown,0,2013-02-24 00:56:00
4:16 PM,-18.4,-25.6,70,29.44,10.0,Calm,Calm,-,N/A,,Unknown,0,2013-02-24 01:16:00
4:36 PM,-18.4,-25.6,70,29.44,10.0,Calm,Calm,-,N/A,,Unknown,0,2013-02-24 01:36:00
4:56 PM,-18.4,-9999,N/A,29.43,10.0,Calm,Calm,-,N/A,,Unknown,0,2013-02-24 01:56:00
5:16 PM,-20.2,-9999,N/A,29.43,10.0,Calm,Calm,-,N/A,,Unknown,0,2013-02-24 02:16:00
5:36 PM,-18.4,-22.0,84,29.43,10.0,Calm,Calm,-,N/A,,Unknown,0,2013-02-24 02:36:00
5:56 PM,-18.4,-9999,N/A,29.43,10.0,Calm,Calm,-,N/A,,Unknown,0,2013-02-24 02:56:00
6:16 PM,-20.2,-9999,N/A,29.44,10.0,Calm,Calm,-,N/A,,Unknown,0,2013-02-24 03:16:00
6:36 PM,-23.8,-9999,N/A,29.44,10.0,Calm,Calm,-,N/A,,Unknown,0,2013-02-24 03:36:00
6:56 PM,-23.8,-9999,N/A,29.44,10.0,Calm,Calm,-,N/A,,Unknown,0,2013-02-24 03:56:00
7:16 PM,-25.6,-9999,N/A,29.44,9.0,Calm,Calm,-,N/A,,Unknown,0,2013-02-24 04:16:00
7:36 PM,-27.4,-9999,N/A,29.44,10.0,Calm,Calm,-,N/A,,Unknown,0,2013-02-24 04:36:00
7:56 PM,-27.4,-9999,N/A,29.44,10.0,Calm,Calm,-,N/A,,Unknown,0,2013-02-24 04:56:00
8:16 PM,-29.2,-9999,N/A,29.44,10.0,Calm,Calm,-,N/A,,Unknown,0,2013-02-24 05:16:00
8:36 PM,-31.0,-9999,N/A,29.45,10.0,Calm,Calm,-,N/A,,Unknown,0,2013-02-24 05:36:00
8:56 PM,-31.0,-9999,N/A,29.45,10.0,Calm,Calm,-,N/A,,Unknown,0,2013-02-24 05:56:00
9:16 PM,-31.0,-9999,N/A,29.45,10.0,Calm,Calm,-,N/A,,Unknown,0,2013-02-24 06:16:00
9:36 PM,-32.8,-9999,N/A,29.46,10.0,Calm,Calm,-,N/A,,Unknown,0,2013-02-24 06:36:00
9:56 PM,-31.0,-9999,N/A,29.45,10.0,Calm,Calm,-,N/A,,Unknown,0,2013-02-24 06:56:00
10:16 PM,-31.0,-9999,N/A,29.46,10.0,Calm,Calm,-,N/A,,Unknown,0,2013-02-24 07:16:00
10:36 PM,-31.0,-9999,N/A,29.46,10.0,Calm,Calm,-,N/A,,Unknown,0,2013-02-24 07:36:00
10:56 PM,-34.6,-9999,N/A,29.46,10.0,Calm,Calm,-,N/A,,Unknown,0,2013-02-24 07:56:00
11:16 PM,-34.6,-9999,N/A,29.47,10.0,Calm,Calm,-,N/A,,Unknown,0,2013-02-24 08:16:00
11:36 PM,-32.8,-9999,N/A,29.47,10.0,Calm,Calm,-,N/A,,Unknown,0,2013-02-24 08:36:00
11:56 PM,-32.8,-9999,N/A,29.47,10.0,Calm,Calm,-,N/A,,Unknown,0,2013-02-24 08:56:00